Time,TemperatureF,DewpointF,PressureIn,WindDirection,WindDirectionDegrees,WindSpeedMPH,WindSpeedGustMPH,Humidity,HourlyPrecipIn,Conditions,Clouds,dailyrainin,SoftwareType,DateUTC
2013-07-06 00:44:00,84.0,-99.9,-100.00,South,174,0.0,7.0,-999,-99.99,,,-99.99,,2013-07-06 07:44:00,
2013-07-06 00:52:00,83.0,-99.9,-100.00,SSW,205,6.0,6.0,-999,-99.99,,,-99.99,,2013-07-06 07:52:00,
2013-07-06 01:12:00,83.0,-99.9,-100.00,SSE,167,7.0,10.0,-999,-99.99,,,-99.99,,2013-07-06 08:12:00,
2013-07-06 01:22:00,83.0,-99.9,-100.00,SSE,167,7.0,10.0,-999,-99.99,,,-99.99,,2013-07-06 08:22:00,
2013-07-06 02:10:00,82.0,-99.9,-100.00,South,187,3.0,7.0,-999,-99.99,,,-99.99,,2013-07-06 09:10:00,
2013-07-06 02:40:00,82.0,-99.9,-100.00,NE,35,4.0,7.0,-999,-99.99,,,-99.99,,2013-07-06 09:40:00,
2013-07-06 02:43:00,82.0,-99.9,-100.00,East,82,2.0,8.0,-999,-99.99,,,-99.99,,2013-07-06 09:43:00,
2013-07-06 02:53:00,82.0,-99.9,-100.00,South,187,3.0,7.0,-999,-99.99,,,-99.99,,2013-07-06 09:53:00,
2013-07-06 03:00:00,81.0,-99.9,-100.00,SSW,203,13.0,14.0,-999,-99.99,,,-99.99,,2013-07-06 10:00:00,
2013-07-06 03:02:00,82.0,-99.9,-100.00,South,187,3.0,7.0,-999,-99.99,,,-99.99,,2013-07-06 10:02:00,
2013-07-06 03:22:00,82.0,-99.9,-100.00,NE,35,4.0,7.0,-999,-99.99,,,-99.99,,2013-07-06 10:22:00,
2013-07-06 03:33:00,82.0,-99.9,-100.00,NE,35,4.0,7.0,-999,-99.99,,,-99.99,,2013-07-06 10:33:00,
2013-07-06 03:53:00,81.0,-99.9,-100.00,SSW,203,13.0,14.0,-999,-99.99,,,-99.99,,2013-07-06 10:53:00,
2013-07-06 04:53:00,80.0,-99.9,-100.00,SSW,202,12.0,15.0,-999,-99.99,,,-99.99,,2013-07-06 11:53:00,
2013-07-06 05:00:00,80.0,-99.9,-100.00,SSW,204,11.0,11.0,-999,-99.99,,,-99.99,,2013-07-06 12:00:00,
2013-07-06 05:01:00,80.0,-99.9,-100.00,SSW,202,12.0,15.0,-999,-99.99,,,-99.99,,2013-07-06 12:01:00,
2013-07-06 05:43:00,80.0,-99.9,-100.00,SSW,204,11.0,11.0,-999,-99.99,,,-99.99,,2013-07-06 12:43:00,
2013-07-06 05:52:00,80.0,-99.9,-100.00,SSW,204,11.0,11.0,-999,-99.99,,,-99.99,,2013-07-06 12:52:00,
2013-07-06 06:20:00,80.0,-99.9,-100.00,South,185,3.0,6.0,-999,-99.99,,,-99.99,,2013-07-06 13:20:00,
2013-07-06 07:12:00,80.0,-99.9,-100.00,South,185,3.0,6.0,-999,-99.99,,,-99.99,,2013-07-06 14:12:00,
2013-07-06 07:53:00,81.0,-99.9,-100.00,SSW,210,5.0,8.0,-999,-99.99,,,-99.99,,2013-07-06 14:53:00,
2013-07-06 08:02:00,81.0,-99.9,-100.00,SSW,210,5.0,8.0,-999,-99.99,,,-99.99,,2013-07-06 15:02:00,
2013-07-06 09:10:00,87.0,-99.9,-100.00,SSW,208,8.0,13.0,-999,-99.99,,,-99.99,,2013-07-06 16:10:00,
2013-07-06 09:30:00,88.0,-99.9,-100.00,SSW,210,12.0,13.0,-999,-99.99,,,-99.99,,2013-07-06 16:30:00,
2013-07-06 11:00:00,93.0,-99.9,-100.00,WSW,245,13.0,13.0,-999,-99.99,,,-99.99,,2013-07-06 18:00:00,
2013-07-06 11:25:00,94.0,-99.9,-100.00,SSW,204,7.0,13.0,-999,-99.99,,,-99.99,,2013-07-06 18:25:00,
2013-07-06 11:40:00,94.0,-99.9,-100.00,SSW,207,6.0,14.0,-999,-99.99,,,-99.99,,2013-07-06 18:40:00,
2013-07-06 17:35:00,102.0,-99.9,-100.00,West,273,10.0,10.0,-999,-99.99,,,-99.99,,2013-07-07 00:35:00,
2013-07-06 17:45:00,102.0,-99.9,-100.00,West,275,5.0,10.0,-999,-99.99,,,-99.99,,2013-07-07 00:45:00,
2013-07-06 18:35:00,101.0,-99.9,-100.00,WSW,247,8.0,11.0,-999,-99.99,,,-99.99,,2013-07-07 01:35:00,
2013-07-06 18:50:00,100.0,-99.9,-100.00,SW,218,4.0,10.0,-999,-99.99,,,-99.99,,2013-07-07 01:50:00,
2013-07-06 19:15:00,100.0,-99.9,-100.00,West,270,7.0,8.0,-999,-99.99,,,-99.99,,2013-07-07 02:15:00,
2013-07-06 19:30:00,99.0,-99.9,-100.00,West,273,4.0,8.0,-999,-99.99,,,-99.99,,2013-07-07 02:30:00,
2013-07-06 19:50:00,98.0,-99.9,-100.00,West,272,3.0,4.0,-999,-99.99,,,-99.99,,2013-07-07 02:50:00,
2013-07-06 20:03:00,100.0,-99.9,-100.00,West,270,7.0,8.0,-999,-99.99,,,-99.99,,2013-07-07 03:03:00,
2013-07-06 20:10:00,97.0,-99.9,-100.00,WSW,258,4.0,6.0,-999,-99.99,,,-99.99,,2013-07-07 03:10:00,
2013-07-06 21:01:00,97.0,-99.9,-100.00,WSW,258,4.0,6.0,-999,-99.99,,,-99.99,,2013-07-07 04:01:00,
2013-07-06 21:02:00,97.0,-99.9,-100.00,WSW,258,4.0,6.0,-999,-99.99,,,-99.99,,2013-07-07 04:02:00,
2013-07-06 21:20:00,93.0,-99.9,-100.00,WSW,244,4.0,6.0,-999,-99.99,,,-99.99,,2013-07-07 04:20:00,
2013-07-06 21:21:00,95.0,-99.9,-100.00,SW,233,4.0,5.0,-999,-99.99,,,-99.99,,2013-07-07 04:21:00,
2013-07-06 21:42:00,94.0,-99.9,-100.00,WNW,288,2.0,3.0,-999,-99.99,,,-99.99,,2013-07-07 04:42:00,
2013-07-06 21:52:00,94.0,-99.9,-100.00,WNW,288,2.0,3.0,-999,-99.99,,,-99.99,,2013-07-07 04:52:00,
2013-07-06 22:00:00,91.0,-99.9,-100.00,West,274,4.0,5.0,-999,-99.99,,,-99.99,,2013-07-07 05:00:00,
2013-07-06 22:01:00,93.0,-99.9,-100.00,WSW,244,4.0,6.0,-999,-99.99,,,-99.99,,2013-07-07 05:01:00,
2013-07-06 22:11:00,93.0,-99.9,-100.00,WSW,244,4.0,6.0,-999,-99.99,,,-99.99,,2013-07-07 05:11:00,
2013-07-06 23:20:00,87.0,-99.9,-100.00,SSW,207,4.0,6.0,-999,-99.99,,,-99.99,,2013-07-07 06:20:00,
2013-07-06 23:43:00,89.0,-99.9,-100.00,SSW,203,2.0,7.0,-999,-99.99,,,-99.99,,2013-07-07 06:43:00,
2013-07-06 23:50:00,87.0,-99.9,-100.00,SW,232,2.0,4.0,-999,-99.99,,,-99.99,,2013-07-07 06:50:00,
2013-07-06 23:52:00,87.0,-99.9,-100.00,SSW,207,5.0,5.0,-999,-99.99,,,-99.99,,2013-07-07 06:52:00,